﻿測定場所 (Monitoring sites),日付 (Measurement date),時間 (Measurement time),線量率 最大値 (max) μGy/h,線量率 最小値 (min) μGy/h,線量率 平均値 (average) μGy/h,
大田 (Ota),2017-02-26,23:01～24:00,0.0408,0.0336,0.0364,
大田 (Ota),2017-02-26,22:01～23:00,0.0383,0.0340,0.0361,
大田 (Ota),2017-02-26,21:01～22:00,0.0407,0.0344,0.0365,
大田 (Ota),2017-02-26,20:01～21:00,0.0392,0.0344,0.0362,
大田 (Ota),2017-02-26,19:01～20:00,0.0388,0.0344,0.0362,
大田 (Ota),2017-02-26,18:01～19:00,0.0375,0.0344,0.0363,
大田 (Ota),2017-02-26,17:01～18:00,0.0381,0.0340,0.0361,
大田 (Ota),2017-02-26,16:01～17:00,0.0407,0.0330,0.0363,
大田 (Ota),2017-02-26,15:01～16:00,0.0384,0.0338,0.0364,
大田 (Ota),2017-02-26,14:01～15:00,0.0395,0.0346,0.0365,
大田 (Ota),2017-02-26,13:01～14:00,0.0389,0.0346,0.0367,
大田 (Ota),2017-02-26,12:01～13:00,0.0398,0.0352,0.0370,
大田 (Ota),2017-02-26,11:01～12:00,0.0408,0.0352,0.0369,
大田 (Ota),2017-02-26,10:01～11:00,0.0401,0.0349,0.0369,
大田 (Ota),2017-02-26,09:01～10:00,0.0395,0.0346,0.0367,
大田 (Ota),2017-02-26,08:01～09:00,0.0390,0.0345,0.0365,
大田 (Ota),2017-02-26,07:01～08:00,0.0399,0.0345,0.0362,
大田 (Ota),2017-02-26,06:01～07:00,0.0382,0.0341,0.0360,
大田 (Ota),2017-02-26,05:01～06:00,0.0394,0.0337,0.0362,
大田 (Ota),2017-02-26,04:01～05:00,0.0389,0.0343,0.0363,
大田 (Ota),2017-02-26,03:01～04:00,0.0396,0.0344,0.0361,
大田 (Ota),2017-02-26,02:01～03:00,0.0380,0.0341,0.0359,
大田 (Ota),2017-02-26,01:01～02:00,0.0389,0.0342,0.0361,
大田 (Ota),2017-02-26,00:01～01:00,0.0396,0.0340,0.0362,
大田 (Ota),2017-02-25,23:01～24:00,0.0377,0.0339,0.0360,
大田 (Ota),2017-02-25,22:01～23:00,0.0385,0.0333,0.0359,
大田 (Ota),2017-02-25,21:01～22:00,0.0380,0.0336,0.0358,
大田 (Ota),2017-02-25,20:01～21:00,0.0385,0.0321,0.0360,
大田 (Ota),2017-02-25,19:01～20:00,0.0380,0.0344,0.0359,
大田 (Ota),2017-02-25,18:01～19:00,0.0394,0.0340,0.0360,
大田 (Ota),2017-02-25,17:01～18:00,0.0386,0.0337,0.0361,
大田 (Ota),2017-02-25,16:01～17:00,0.0386,0.0345,0.0360,
大田 (Ota),2017-02-25,15:01～16:00,0.0383,0.0338,0.0358,
大田 (Ota),2017-02-25,14:01～15:00,0.0401,0.0340,0.0361,
大田 (Ota),2017-02-25,13:01～14:00,0.0388,0.0345,0.0365,
大田 (Ota),2017-02-25,12:01～13:00,0.0386,0.0341,0.0362,
大田 (Ota),2017-02-25,11:01～12:00,0.0398,0.0339,0.0362,
大田 (Ota),2017-02-25,10:01～11:00,0.0389,0.0345,0.0363,
大田 (Ota),2017-02-25,09:01～10:00,0.0394,0.0342,0.0365,
大田 (Ota),2017-02-25,08:01～09:00,0.0387,0.0335,0.0358,
大田 (Ota),2017-02-25,07:01～08:00,0.0389,0.0344,0.0359,
大田 (Ota),2017-02-25,06:01～07:00,0.0378,0.0339,0.0358,
大田 (Ota),2017-02-25,05:01～06:00,0.0373,0.0340,0.0357,
大田 (Ota),2017-02-25,04:01～05:00,0.0374,0.0343,0.0357,
大田 (Ota),2017-02-25,03:01～04:00,0.0388,0.0328,0.0360,
大田 (Ota),2017-02-25,02:01～03:00,0.0387,0.0342,0.0360,
大田 (Ota),2017-02-25,01:01～02:00,0.0377,0.0346,0.0361,
大田 (Ota),2017-02-25,00:01～01:00,0.0392,0.0350,0.0366,
大田 (Ota),2017-02-24,23:01～24:00,0.0397,0.0347,0.0368,
大田 (Ota),2017-02-24,22:01～23:00,0.0375,0.0339,0.0358,
大田 (Ota),2017-02-24,21:01～22:00,0.0404,0.0335,0.0356,
大田 (Ota),2017-02-24,20:01～21:00,0.0387,0.0337,0.0357,
大田 (Ota),2017-02-24,19:01～20:00,0.0384,0.0336,0.0358,
大田 (Ota),2017-02-24,18:01～19:00,0.0376,0.0338,0.0358,
大田 (Ota),2017-02-24,17:01～18:00,0.0372,0.0334,0.0356,
大田 (Ota),2017-02-24,16:01～17:00,0.0375,0.0332,0.0356,
大田 (Ota),2017-02-24,15:01～16:00,0.0375,0.0339,0.0358,
大田 (Ota),2017-02-24,14:01～15:00,0.0393,0.0343,0.0361,
大田 (Ota),2017-02-24,13:01～14:00,0.0401,0.0338,0.0362,
大田 (Ota),2017-02-24,12:01～13:00,0.0388,0.0344,0.0362,
大田 (Ota),2017-02-24,11:01～12:00,0.0382,0.0343,0.0360,
大田 (Ota),2017-02-24,10:01～11:00,0.0395,0.0345,0.0362,
大田 (Ota),2017-02-24,09:01～10:00,0.0400,0.0342,0.0363,
大田 (Ota),2017-02-24,08:01～09:00,0.0383,0.0342,0.0361,
大田 (Ota),2017-02-24,07:01～08:00,0.0400,0.0345,0.0364,
大田 (Ota),2017-02-24,06:01～07:00,0.0393,0.0350,0.0365,
大田 (Ota),2017-02-24,05:01～06:00,0.0392,0.0345,0.0365,
大田 (Ota),2017-02-24,04:01～05:00,0.0396,0.0339,0.0368,
大田 (Ota),2017-02-24,03:01～04:00,0.0385,0.0345,0.0366,
大田 (Ota),2017-02-24,02:01～03:00,0.0397,0.0344,0.0365,
大田 (Ota),2017-02-24,01:01～02:00,0.0389,0.0342,0.0363,
大田 (Ota),2017-02-24,00:01～01:00,0.0389,0.0337,0.0362,
大田 (Ota),2017-02-23,23:01～24:00,0.0394,0.0340,0.0360,
大田 (Ota),2017-02-23,22:01～23:00,0.0384,0.0344,0.0362,
大田 (Ota),2017-02-23,21:01～22:00,0.0392,0.0342,0.0359,
大田 (Ota),2017-02-23,20:01～21:00,0.0383,0.0341,0.0360,
大田 (Ota),2017-02-23,19:01～20:00,0.0392,0.0334,0.0361,
大田 (Ota),2017-02-23,18:01～19:00,0.0396,0.0341,0.0366,
大田 (Ota),2017-02-23,17:01～18:00,0.0394,0.0347,0.0365,
大田 (Ota),2017-02-23,16:01～17:00,0.0389,0.0344,0.0362,
大田 (Ota),2017-02-23,15:01～16:00,0.0382,0.0343,0.0364,
大田 (Ota),2017-02-23,14:01～15:00,0.0385,0.0348,0.0366,
大田 (Ota),2017-02-23,13:01～14:00,0.0388,0.0352,0.0367,
大田 (Ota),2017-02-23,12:01～13:00,0.0412,0.0353,0.0375,
大田 (Ota),2017-02-23,11:01～12:00,0.0429,0.0365,0.0391,
大田 (Ota),2017-02-23,10:01～11:00,0.0427,0.0362,0.0393,
大田 (Ota),2017-02-23,09:01～10:00,0.0409,0.0362,0.0379,
大田 (Ota),2017-02-23,08:01～09:00,0.0402,0.0351,0.0372,
大田 (Ota),2017-02-23,07:01～08:00,0.0405,0.0334,0.0365,
大田 (Ota),2017-02-23,06:01～07:00,0.0399,0.0342,0.0365,
大田 (Ota),2017-02-23,05:01～06:00,0.0435,0.0350,0.0384,
大田 (Ota),2017-02-23,04:01～05:00,0.0435,0.0341,0.0384,
大田 (Ota),2017-02-23,03:01～04:00,0.0381,0.0344,0.0364,
大田 (Ota),2017-02-23,02:01～03:00,0.0387,0.0336,0.0359,
大田 (Ota),2017-02-23,01:01～02:00,0.0385,0.0342,0.0359,
大田 (Ota),2017-02-23,00:01～01:00,0.0371,0.0343,0.0358,
大田 (Ota),2017-02-22,23:01～24:00,0.0376,0.0342,0.0360,
大田 (Ota),2017-02-22,22:01～23:00,0.0384,0.0340,0.0359,
大田 (Ota),2017-02-22,21:01～22:00,0.0390,0.0340,0.0360,
大田 (Ota),2017-02-22,20:01～21:00,0.0375,0.0339,0.0358,
大田 (Ota),2017-02-22,19:01～20:00,0.0388,0.0341,0.0359,
大田 (Ota),2017-02-22,18:01～19:00,0.0384,0.0337,0.0360,
大田 (Ota),2017-02-22,17:01～18:00,0.0393,0.0335,0.0360,
大田 (Ota),2017-02-22,16:01～17:00,0.0389,0.0343,0.0360,
大田 (Ota),2017-02-22,15:01～16:00,0.0381,0.0340,0.0357,
大田 (Ota),2017-02-22,14:01～15:00,0.0374,0.0335,0.0356,
大田 (Ota),2017-02-22,13:01～14:00,0.0385,0.0336,0.0356,
大田 (Ota),2017-02-22,12:01～13:00,0.0395,0.0341,0.0357,
大田 (Ota),2017-02-22,11:01～12:00,0.0372,0.0338,0.0358,
大田 (Ota),2017-02-22,10:01～11:00,0.0386,0.0344,0.0362,
大田 (Ota),2017-02-22,09:01～10:00,0.0374,0.0338,0.0357,
大田 (Ota),2017-02-22,08:01～09:00,0.0373,0.0338,0.0356,
大田 (Ota),2017-02-22,07:01～08:00,0.0372,0.0336,0.0354,
大田 (Ota),2017-02-22,06:01～07:00,0.0386,0.0332,0.0355,
大田 (Ota),2017-02-22,05:01～06:00,0.0372,0.0330,0.0355,
大田 (Ota),2017-02-22,04:01～05:00,0.0387,0.0338,0.0356,
大田 (Ota),2017-02-22,03:01～04:00,0.0369,0.0331,0.0355,
大田 (Ota),2017-02-22,02:01～03:00,0.0367,0.0335,0.0353,
大田 (Ota),2017-02-22,01:01～02:00,0.0374,0.0335,0.0355,
大田 (Ota),2017-02-22,00:01～01:00,0.0373,0.0336,0.0355,
大田 (Ota),2017-02-21,23:01～24:00,0.0377,0.0329,0.0352,
大田 (Ota),2017-02-21,22:01～23:00,0.0371,0.0332,0.0352,
大田 (Ota),2017-02-21,21:01～22:00,0.0371,0.0331,0.0353,
大田 (Ota),2017-02-21,20:01～21:00,0.0369,0.0332,0.0351,
大田 (Ota),2017-02-21,19:01～20:00,0.0369,0.0339,0.0355,
大田 (Ota),2017-02-21,18:01～19:00,0.0370,0.0336,0.0353,
大田 (Ota),2017-02-21,17:01～18:00,0.0370,0.0329,0.0354,
大田 (Ota),2017-02-21,16:01～17:00,0.0374,0.0339,0.0354,
大田 (Ota),2017-02-21,15:01～16:00,0.0377,0.0337,0.0357,
大田 (Ota),2017-02-21,14:01～15:00,0.0396,0.0336,0.0355,
大田 (Ota),2017-02-21,13:01～14:00,0.0391,0.0336,0.0360,
大田 (Ota),2017-02-21,12:01～13:00,0.0378,0.0329,0.0360,
大田 (Ota),2017-02-21,11:01～12:00,0.0393,0.0337,0.0361,
大田 (Ota),2017-02-21,10:01～11:00,0.0391,0.0344,0.0363,
大田 (Ota),2017-02-21,09:01～10:00,0.0383,0.0338,0.0361,
大田 (Ota),2017-02-21,08:01～09:00,0.0383,0.0337,0.0362,
大田 (Ota),2017-02-21,07:01～08:00,0.0373,0.0340,0.0359,
大田 (Ota),2017-02-21,06:01～07:00,0.0392,0.0341,0.0359,
大田 (Ota),2017-02-21,05:01～06:00,0.0391,0.0332,0.0359,
大田 (Ota),2017-02-21,04:01～05:00,0.0388,0.0343,0.0360,
大田 (Ota),2017-02-21,03:01～04:00,0.0392,0.0336,0.0361,
大田 (Ota),2017-02-21,02:01～03:00,0.0395,0.0339,0.0364,
大田 (Ota),2017-02-21,01:01～02:00,0.0384,0.0347,0.0363,
大田 (Ota),2017-02-21,00:01～01:00,0.0407,0.0346,0.0366,
大田 (Ota),2017-02-20,23:01～24:00,0.0402,0.0343,0.0364,
大田 (Ota),2017-02-20,22:01～23:00,0.0396,0.0339,0.0369,
大田 (Ota),2017-02-20,21:01～22:00,0.0469,0.0365,0.0401,
大田 (Ota),2017-02-20,20:01～21:00,0.0543,0.0409,0.0475,
大田 (Ota),2017-02-20,19:01～20:00,0.0617,0.0481,0.0541,
大田 (Ota),2017-02-20,18:01～19:00,0.0620,0.0397,0.0515,
大田 (Ota),2017-02-20,17:01～18:00,0.0426,0.0355,0.0385,
大田 (Ota),2017-02-20,16:01～17:00,0.0408,0.0361,0.0381,
大田 (Ota),2017-02-20,15:01～16:00,0.0392,0.0353,0.0369,
大田 (Ota),2017-02-20,14:01～15:00,0.0408,0.0345,0.0370,
大田 (Ota),2017-02-20,13:01～14:00,0.0395,0.0343,0.0368,
大田 (Ota),2017-02-20,12:01～13:00,0.0407,0.0346,0.0368,
大田 (Ota),2017-02-20,11:01～12:00,0.0396,0.0348,0.0367,
大田 (Ota),2017-02-20,10:01～11:00,0.0390,0.0349,0.0367,
大田 (Ota),2017-02-20,09:01～10:00,0.0400,0.0345,0.0365,
大田 (Ota),2017-02-20,08:01～09:00,0.0392,0.0353,0.0368,
大田 (Ota),2017-02-20,07:01～08:00,0.0397,0.0345,0.0367,
大田 (Ota),2017-02-20,06:01～07:00,0.0411,0.0350,0.0370,
大田 (Ota),2017-02-20,05:01～06:00,0.0397,0.0337,0.0363,
大田 (Ota),2017-02-20,04:01～05:00,0.0397,0.0347,0.0367,
大田 (Ota),2017-02-20,03:01～04:00,0.0394,0.0347,0.0368,
大田 (Ota),2017-02-20,02:01～03:00,0.0398,0.0336,0.0368,
大田 (Ota),2017-02-20,01:01～02:00,0.0404,0.0352,0.0368,
大田 (Ota),2017-02-20,00:01～01:00,0.0394,0.0349,0.0369,
